Weather reports worldwide

Advertisment
Alsancak, Cyprus (17572): temperature & dewpoint: 12.10.2018 15:00:00 - 18.10.2018 15:00:00 (EEST)Alsancak, Cyprus (17572): wind speed: 12.10.2018 15:00:00 - 18.10.2018 15:00:00 (EEST)Alsancak, Cyprus (17572): wind direction: 12.10.2018 15:00:00 - 18.10.2018 15:00:00 (EEST)Alsancak, Cyprus (17572): reduced air pressure: 12.10.2018 15:00:00 - 18.10.2018 15:00:00 (EEST)Alsancak, Cyprus (17572): visibility: 12.10.2018 15:00:00 - 18.10.2018 15:00:00 (EEST)
Date & Time tt [°C] td [°C] ff [km/h] ff [kn] dd ppp [hPa] vv [km]
18.10.2018 15:00:00 26,6 20,0 16 9 E 1013,1 8
18.10.2018 14:00:00 26,6 18,5 0 0 N 1013,8 8
18.10.2018 13:00:00 26,5 17,8 0 0 N 1014,3 8
18.10.2018 12:00:00 26,7 19,0 8 4 E 1014,7 8
18.10.2018 11:00:00 26,3 17,9 11 6 E 1014,8 8
18.10.2018 10:00:00 25,8 17,8 8 4 ESE 1014,6 8
18.10.2018 09:00:00 24,0 18,9 5 3 SSW 1014,4 8
18.10.2018 08:00:00 22,7 18,5 11 6 SSW 1014,1 10
18.10.2018 07:00:00 22,2 18,0 11 6 S 1013,9 10
18.10.2018 06:00:00 22,2 17,8 13 7 S 1013,9 10
18.10.2018 05:00:00 - - - - - - -
18.10.2018 04:00:00 - - - - - - -
18.10.2018 03:00:00 - - - - - - -
18.10.2018 02:00:00 - - - - - - -
18.10.2018 01:00:00 - - - - - - -
18.10.2018 00:00:00 - - - - - - -
17.10.2018 23:00:00 - - - - - - -
17.10.2018 22:00:00 21,4 17,9 11 6 SSW 1018,1 10
17.10.2018 21:00:00 21,2 17,9 5 3 S 1015,2 10
17.10.2018 20:00:00 19,5 15,4 0 0 N 1015,2 8
17.10.2018 19:00:00 18,7 15,3 22 12 S 1015,3 8
17.10.2018 18:00:00 25,4 18,9 9 5 E 1014,4 9
17.10.2018 17:00:00 25,2 18,7 18 10 NE 1014,4 9
17.10.2018 16:00:00 26,1 18,4 0 0 N 1014,0 9
17.10.2018 15:00:00 25,5 18,8 15 8 E 1014,7 9
17.10.2018 14:00:00 25,2 18,7 8 4 NNE 1015,1 9
17.10.2018 13:00:00 25,3 18,4 11 6 NE 1015,5 10
17.10.2018 12:00:00 25,5 18,3 9 5 WNW 1015,3 10
17.10.2018 11:00:00 25,0 18,5 13 7 WNW 1015,4 10
17.10.2018 10:00:00 25,0 18,1 9 5 WNW 1015,3 10
17.10.2018 09:00:00 24,3 17,4 0 0 N 1015,3 10
17.10.2018 08:00:00 21,2 16,1 8 4 SSW 1014,8 10
17.10.2018 07:00:00 20,7 14,9 8 4 S 1014,7 10
17.10.2018 06:00:00 21,3 15,4 8 4 SSW 1014,9 10
17.10.2018 05:00:00 - - - - - - -
17.10.2018 04:00:00 - - - - - - -
17.10.2018 03:00:00 22,4 16,8 9 5 SSW 1015,6 10
17.10.2018 02:00:00 - - - - - - -
17.10.2018 01:00:00 - - - - - - -
17.10.2018 00:00:00 22,6 16,0 5 3 S 1016,2 10
16.10.2018 23:00:00 22,9 16,1 5 3 SSW 1015,9 10
16.10.2018 22:00:00 23,3 16,5 5 3 SSW 1016,2 10
16.10.2018 21:00:00 23,6 16,6 8 4 SSW 1016,3 10
16.10.2018 20:00:00 23,9 17,1 8 4 SW 1016,4 10
16.10.2018 19:00:00 24,8 17,6 11 6 WNW 1016,2 10
16.10.2018 18:00:00 25,0 17,8 9 5 W 1015,7 10
16.10.2018 17:00:00 25,7 18,3 8 4 W 1015,6 10
16.10.2018 16:00:00 26,0 18,2 9 5 WNW 1015,8 10
16.10.2018 15:00:00 25,8 18,6 8 4 WNW 1016,0 10
16.10.2018 14:00:00 25,7 17,7 8 4 NW 1016,2 10
16.10.2018 13:00:00 25,6 18,0 15 8 NW 1016,4 10
16.10.2018 12:00:00 25,5 17,9 9 5 WNW 1016,8 10
16.10.2018 11:00:00 25,4 17,7 9 5 WNW 1017,0 10
16.10.2018 10:00:00 25,0 17,4 5 3 W 1017,0 10
16.10.2018 09:00:00 24,3 17,0 0 0 N 1016,6 10
16.10.2018 08:00:00 22,9 16,1 0 0 N 1016,1 10
16.10.2018 07:00:00 22,2 16,2 0 0 N 1016,0 10
16.10.2018 06:00:00 22,2 16,8 0 0 N 1016,1 10
16.10.2018 05:00:00 - - - - - - -
16.10.2018 04:00:00 - - - - - - -
16.10.2018 03:00:00 22,5 16,5 0 0 N 1016,4 10
16.10.2018 02:00:00 - - - - - - -
16.10.2018 01:00:00 - - - - - - -
16.10.2018 00:00:00 22,9 16,4 8 4 SSW 1018,9 10
15.10.2018 23:00:00 22,8 16,3 8 4 SSW 1017,0 10
15.10.2018 22:00:00 23,2 16,1 8 4 SW 1017,1 10
15.10.2018 21:00:00 23,0 16,4 8 4 SSW 1017,0 10
15.10.2018 20:00:00 23,2 16,1 5 3 SSW 1016,9 10
15.10.2018 19:00:00 23,7 16,4 0 0 N 1016,8 10
15.10.2018 18:00:00 25,2 16,8 11 6 NW 1016,4 10
15.10.2018 17:00:00 25,5 16,4 8 4 NW 1016,3 10
15.10.2018 16:00:00 25,9 16,2 0 0 N 1016,0 10
15.10.2018 15:00:00 25,8 16,4 11 6 WNW 1016,0 10
15.10.2018 14:00:00 - - - - - - -
15.10.2018 13:00:00 25,2 16,4 8 4 NNE 1017,2 10
15.10.2018 12:00:00 25,4 15,4 8 4 NNE 1017,1 10
15.10.2018 11:00:00 25,2 16,0 0 0 N 1017,5 10
15.10.2018 10:00:00 25,2 16,2 8 4 W 1017,3 10
15.10.2018 09:00:00 24,9 16,1 0 0 N 1016,5 10
15.10.2018 08:00:00 22,0 15,5 9 5 SSW 1016,3 10
15.10.2018 07:00:00 21,7 15,5 11 6 SW 1016,1 10
15.10.2018 06:00:00 21,8 15,5 13 7 SSW 1016,1 10
15.10.2018 05:00:00 - - - - - - -
15.10.2018 04:00:00 - - - - - - -
15.10.2018 03:00:00 22,1 14,7 9 5 SW 1016,2 10
15.10.2018 02:00:00 - - - - - - -
15.10.2018 01:00:00 - - - - - - -
15.10.2018 00:00:00 22,3 13,5 9 5 SSW 1016,1 10
14.10.2018 23:00:00 22,6 13,0 8 4 SSW 1016,6 10
14.10.2018 22:00:00 22,7 13,6 9 5 SSW 1016,7 10
14.10.2018 21:00:00 - - - - - - -
14.10.2018 20:00:00 23,0 14,6 9 5 SSW 1016,2 10
14.10.2018 19:00:00 23,5 14,6 11 6 SSW 1015,9 10
14.10.2018 18:00:00 25,8 14,7 11 6 W 1015,3 10
14.10.2018 17:00:00 26,0 15,4 15 8 W 1015,4 10
14.10.2018 16:00:00 26,3 15,5 15 8 WNW 1015,9 10
14.10.2018 15:00:00 26,1 16,5 0 0 N 1016,2 10
14.10.2018 14:00:00 25,7 16,8 0 0 N 1016,7 10
14.10.2018 13:00:00 25,5 17,3 0 0 N 1017,3 10
14.10.2018 12:00:00 25,0 16,9 0 0 N 1017,8 10
14.10.2018 11:00:00 24,9 17,3 0 0 N 1017,8 10
14.10.2018 10:00:00 24,9 17,2 0 0 N 1017,8 10
14.10.2018 09:00:00 24,3 16,3 0 0 N 1017,8 10
14.10.2018 08:00:00 20,7 15,1 9 5 SSW 1017,2 10
14.10.2018 07:00:00 20,7 15,9 9 5 SW 1017,2 10
14.10.2018 06:00:00 20,7 15,7 11 6 SSW 1017,2 10
14.10.2018 05:00:00 - - - - - - -
14.10.2018 04:00:00 - - - - - - -
14.10.2018 03:00:00 20,8 14,9 9 5 SW 1017,7 10
14.10.2018 02:00:00 - - - - - - -
14.10.2018 01:00:00 - - - - - - -
14.10.2018 00:00:00 21,3 15,2 11 6 SSW 1018,0 10
13.10.2018 23:00:00 21,3 15,2 9 5 SSW 1018,1 10
13.10.2018 22:00:00 21,3 14,8 9 5 S 1018,0 10
13.10.2018 21:00:00 21,6 15,4 8 4 SSW 1017,8 10
13.10.2018 20:00:00 21,9 15,3 9 5 SSW 1017,7 10
13.10.2018 19:00:00 23,6 16,8 5 3 S 1017,1 10
13.10.2018 18:00:00 25,2 18,3 13 7 E 1017,1 10
13.10.2018 17:00:00 24,8 17,8 9 5 NE 1017,0 10
13.10.2018 16:00:00 24,8 16,5 11 6 E 1017,7 10
13.10.2018 15:00:00 24,9 16,5 28 15 E 1017,8 10
13.10.2018 14:00:00 25,3 17,5 22 12 ENE 1017,8 10
13.10.2018 13:00:00 25,2 16,8 22 12 E 1017,9 10
13.10.2018 12:00:00 25,1 17,3 15 8 ENE 1018,0 10
13.10.2018 11:00:00 24,9 16,8 18 10 E 1018,1 10
13.10.2018 10:00:00 24,7 16,1 15 8 ENE 1018,1 10
13.10.2018 09:00:00 24,3 15,5 0 0 N 1017,6 10
13.10.2018 08:00:00 22,7 15,9 0 0 N 1017,0 10
13.10.2018 07:00:00 22,1 14,3 0 0 N 1016,4 10
13.10.2018 06:00:00 20,0 10,0 0 0 N 1016,0 10
13.10.2018 05:00:00 - - - - - - -
13.10.2018 04:00:00 - - - - - - -
13.10.2018 03:00:00 19,8 10,0 0 0 N 1016,0 10
13.10.2018 02:00:00 - - - - - - -
13.10.2018 01:00:00 - - - - - - -
13.10.2018 00:00:00 20,8 14,0 0 0 N 1016,6 10
12.10.2018 23:00:00 21,3 13,5 0 0 N 1016,6 10
12.10.2018 22:00:00 22,2 15,9 0 0 N 1015,4 10
12.10.2018 21:00:00 20,9 17,5 0 0 N 1015,4 10
12.10.2018 20:00:00 21,3 18,0 0 0 N 1015,8 10
12.10.2018 19:00:00 21,4 17,9 0 0 N 1015,8 8
12.10.2018 18:00:00 22,1 19,0 0 0 N 1015,7 10
12.10.2018 17:00:00 22,0 16,7 8 4 S 1015,4 8
12.10.2018 16:00:00 22,5 19,0 26 14 WNW 1014,8 8
12.10.2018 15:00:00 23,0 15,9 22 12 WNW 1015,5 6

tt = temperature
td = dewpoint
ff = wind speed
dd = wind direction
ppp = reduced air pressure
vv = visibility

Next stations